TimeEST,TemperatureF,Dew PointF,Humidity,Sea Level PressureIn,VisibilityMPH,Wind Direction,Wind SpeedMPH,Gust SpeedMPH,PrecipitationIn,Events,Conditions,WindDirDegrees,DateUTC
12:15 AM,11.3,6.6,81,30.51,10.0,Calm,Calm,-,N/A,,Clear,0,2013-01-25 05:15:00
12:35 AM,11.8,7.0,81,30.50,10.0,Calm,Calm,-,N/A,,Clear,0,2013-01-25 05:35:00
12:55 AM,11.7,7.2,82,30.49,10.0,Calm,Calm,-,N/A,,Clear,0,2013-01-25 05:55:00
1:15 AM,11.1,6.6,82,30.49,10.0,Calm,Calm,-,N/A,,Clear,0,2013-01-25 06:15:00
1:35 AM,10.9,6.4,82,30.48,10.0,Calm,Calm,-,N/A,,Clear,0,2013-01-25 06:35:00
1:55 AM,10.9,7.0,84,30.48,10.0,Calm,Calm,-,N/A,,Clear,0,2013-01-25 06:55:00
2:15 AM,11.7,7.5,83,30.47,10.0,Calm,Calm,-,N/A,,Clear,0,2013-01-25 07:15:00
2:35 AM,12.0,7.7,83,30.47,10.0,Calm,Calm,-,N/A,,Clear,0,2013-01-25 07:35:00
2:55 AM,12.2,7.7,82,30.47,10.0,Calm,Calm,-,N/A,,Clear,0,2013-01-25 07:55:00
3:15 AM,12.2,7.7,82,30.46,10.0,Calm,Calm,-,N/A,,Clear,0,2013-01-25 08:15:00
3:35 AM,12.7,7.7,80,30.46,10.0,Calm,Calm,-,N/A,,Clear,0,2013-01-25 08:35:00
3:55 AM,12.9,7.9,80,30.46,10.0,Calm,Calm,-,N/A,,Scattered Clouds,0,2013-01-25 08:55:00
4:15 AM,13.5,7.9,78,30.45,10.0,Calm,Calm,-,N/A,,Scattered Clouds,0,2013-01-25 09:15:00
4:35 AM,13.6,8.2,79,30.44,10.0,Calm,Calm,-,N/A,,Scattered Clouds,0,2013-01-25 09:35:00
4:55 AM,14.0,8.2,78,30.44,10.0,Calm,Calm,-,N/A,,Overcast,0,2013-01-25 09:55:00
5:15 AM,14.0,8.4,78,30.43,10.0,Calm,Calm,-,N/A,,Overcast,0,2013-01-25 10:15:00
5:35 AM,14.0,8.4,78,30.42,10.0,Calm,Calm,-,N/A,,Scattered Clouds,0,2013-01-25 10:35:00
5:55 AM,14.0,8.2,78,30.41,10.0,Calm,Calm,-,N/A,,Clear,0,2013-01-25 10:55:00
6:15 AM,14.5,8.6,77,30.40,10.0,Calm,Calm,-,N/A,,Scattered Clouds,0,2013-01-25 11:15:00
6:35 AM,14.9,8.8,77,30.39,10.0,Calm,Calm,-,N/A,,Overcast,0,2013-01-25 11:35:00
6:55 AM,15.4,8.6,74,30.40,10.0,Calm,Calm,-,N/A,,Overcast,0,2013-01-25 11:55:00
7:15 AM,15.6,9.1,76,30.39,10.0,Calm,Calm,-,N/A,,Overcast,0,2013-01-25 12:15:00
7:35 AM,15.6,9.1,76,30.37,10.0,Calm,Calm,-,N/A,,Overcast,0,2013-01-25 12:35:00
7:55 AM,15.8,9.1,75,30.36,10.0,Calm,Calm,-,N/A,,Overcast,0,2013-01-25 12:55:00
8:35 AM,16.0,8.1,71,30.31,10.0,Calm,Calm,-,N/A,,Overcast,0,2013-01-25 13:35:00
8:55 AM,16.3,8.4,71,30.32,10.0,Calm,Calm,-,N/A,,Overcast,0,2013-01-25 13:55:00
9:15 AM,17.1,9.1,71,30.31,10.0,Calm,Calm,-,N/A,,Overcast,0,2013-01-25 14:15:00
9:35 AM,17.6,8.1,66,30.31,10.0,Calm,Calm,-,N/A,,Overcast,0,2013-01-25 14:35:00
9:55 AM,18.5,9.0,66,30.29,10.0,Calm,Calm,-,N/A,,Overcast,0,2013-01-25 14:55:00
10:15 AM,20.1,8.1,60,30.27,10.0,Calm,Calm,-,N/A,,Overcast,0,2013-01-25 15:15:00
10:35 AM,21.0,9.0,60,30.27,10.0,Calm,Calm,-,N/A,,Overcast,0,2013-01-25 15:35:00
10:55 AM,21.4,10.0,62,30.25,10.0,Calm,Calm,-,N/A,,Overcast,0,2013-01-25 15:55:00
11:15 AM,23.2,10.6,59,30.23,10.0,West,3.5,-,N/A,,Overcast,280,2013-01-25 16:15:00
11:35 AM,24.3,9.7,54,30.21,10.0,Calm,Calm,-,N/A,,Overcast,0,2013-01-25 16:35:00
11:55 AM,25.2,7.2,46,30.21,10.0,SSW,5.8,-,N/A,,Overcast,200,2013-01-25 16:55:00
12:15 PM,26.2,5.9,42,30.18,10.0,SSW,6.9,-,N/A,,Overcast,200,2013-01-25 17:15:00
12:35 PM,26.4,5.7,41,30.16,10.0,South,9.2,-,N/A,,Overcast,190,2013-01-25 17:35:00
12:55 PM,26.1,7.7,46,30.14,10.0,South,13.8,17.3,N/A,Snow,Light Snow,170,2013-01-25 17:55:00
1:15 PM,23.5,14.9,70,30.12,1.5,South,8.1,12.7,N/A,Snow,Light Snow,170,2013-01-25 18:15:00
1:35 PM,23.2,16.7,76,30.10,1.2,South,6.9,-,N/A,Snow,Light Snow,180,2013-01-25 18:35:00
2:15 PM,22.5,16.9,79,30.08,1.2,Calm,Calm,-,N/A,Snow,Light Snow,0,2013-01-25 19:15:00
2:35 PM,22.8,17.1,79,30.08,1.0,South,3.5,-,N/A,Snow,Light Snow,170,2013-01-25 19:35:00
2:55 PM,22.8,16.9,78,30.07,0.8,SSE,5.8,-,N/A,Snow,Light Snow,160,2013-01-25 19:55:00
3:15 PM,22.6,17.8,82,30.07,0.5,Calm,Calm,-,N/A,Snow,Snow,0,2013-01-25 20:15:00
3:35 PM,22.5,18.1,83,30.06,0.8,Calm,Calm,-,N/A,Snow,Light Snow,0,2013-01-25 20:35:00
3:55 PM,22.1,18.0,84,30.06,0.8,SSE,3.5,-,N/A,Snow,Light Snow,160,2013-01-25 20:55:00
4:15 PM,22.3,18.1,84,30.05,0.5,SE,3.5,-,N/A,Snow,Light Snow,130,2013-01-25 21:15:00
4:35 PM,22.6,18.5,84,30.04,1.5,SE,4.6,-,N/A,Snow,Light Snow,130,2013-01-25 21:35:00
4:55 PM,23.0,18.7,84,30.03,2.0,ESE,3.5,-,N/A,Snow,Light Snow,120,2013-01-25 21:55:00
5:15 PM,21.7,17.4,83,30.03,4.0,North,3.5,-,N/A,Snow,Light Snow,10,2013-01-25 22:15:00
5:35 PM,20.8,16.7,84,30.03,5.0,NNE,4.6,-,N/A,Snow,Light Snow,20,2013-01-25 22:35:00
5:55 PM,20.7,16.3,83,30.03,5.0,North,5.8,-,N/A,Snow,Light Snow,10,2013-01-25 22:55:00
6:15 PM,20.8,16.5,83,30.03,5.0,Calm,Calm,-,N/A,Snow,Light Snow,0,2013-01-25 23:15:00
6:35 PM,20.8,16.5,83,30.03,10.0,Calm,Calm,-,N/A,Snow,Light Snow,0,2013-01-25 23:35:00
6:55 PM,20.7,16.3,83,30.03,7.0,North,3.5,-,N/A,,Overcast,350,2013-01-25 23:55:00
7:15 PM,20.3,15.8,83,30.03,7.0,Calm,Calm,-,N/A,,Overcast,0,2013-01-26 00:15:00
7:35 PM,20.3,15.6,82,30.03,10.0,WNW,3.5,-,N/A,,Overcast,300,2013-01-26 00:35:00
7:55 PM,20.3,15.6,82,30.03,10.0,Calm,Calm,-,N/A,,Overcast,0,2013-01-26 00:55:00
8:15 PM,20.3,15.6,82,30.03,10.0,Calm,Calm,-,N/A,,Overcast,0,2013-01-26 01:15:00
8:35 PM,20.3,15.6,82,30.03,10.0,Calm,Calm,-,N/A,,Overcast,0,2013-01-26 01:35:00
8:55 PM,20.5,15.8,82,30.03,10.0,Calm,Calm,-,N/A,,Overcast,0,2013-01-26 01:55:00
9:15 PM,20.7,15.8,81,30.02,10.0,Calm,Calm,-,N/A,,Overcast,0,2013-01-26 02:15:00
9:35 PM,20.3,15.8,83,30.03,10.0,Calm,Calm,-,N/A,,Overcast,0,2013-01-26 02:35:00
9:55 PM,19.9,15.4,83,30.02,10.0,Calm,Calm,-,N/A,,Overcast,0,2013-01-26 02:55:00
10:15 PM,17.8,13.8,84,30.02,10.0,Calm,Calm,-,N/A,,Mostly Cloudy,0,2013-01-26 03:15:00
10:35 PM,17.2,14.2,88,30.02,7.0,Calm,Calm,-,N/A,,Scattered Clouds,0,2013-01-26 03:35:00
10:55 PM,14.4,11.5,88,30.02,7.0,Calm,Calm,-,N/A,,Scattered Clouds,0,2013-01-26 03:55:00
11:15 PM,12.4,9.3,88,30.02,10.0,Calm,Calm,-,N/A,,Scattered Clouds,0,2013-01-26 04:15:00
11:35 PM,14.7,12.0,89,30.02,10.0,NW,5.8,-,N/A,,Mostly Cloudy,320,2013-01-26 04:35:00
11:55 PM,15.6,12.9,89,30.02,7.0,SE,4.6,-,N/A,,Overcast,140,2013-01-26 04:55:00